Starlink 3515

operational
NORAD ID: 51738 Int'l Des: 2022-016 Owner: SPXS Country: US Constellation: starlink
LEOCIRCULAR

Starlink 3515について

説明を読み込み中...

リアルタイム位置

3D地球を読み込み中...

次回通過

高度履歴

Altitude vs Time

uPlot chart will show altitude changes over time

軌道要素

1 51738U 22016AA 25304.80050098 -.00005253 00000-0 -31253-3 0 9993
2 51738 53.2159 177.7288 0001570 85.2904 274.8268 15.08800716204102
Epoch: Oct 31, 2025 • Age: 8 hours

現在のステータス

高度 540.1 km
速度 7.60 km/s
衛星直下点 23.46°N, 104.99°E
打ち上げ日 Feb 21, 2022
運用期間 3.6 years
タイプ internet

技術仕様

分類 Payload
質量 297.00 kg
乾燥質量 275.00 kg
総質量 297.00 kg
長さ 0.20 m
直径 2.80 m
スパン 9.00 m
形状 Box + pan
製造者 SPXS
バスタイプ Starlink
フェーズステータス In Orbit
所有者/国 SPXS/US

大規模コンステレーション

Loading constellations...